Weather History for North Island, CA

Change the Weather History Date:

Saturday, February 16, 2013

  Actual Average Record
Temperature  
Mean Temperature 66 °F -  
Max Temperature 80 °F 61 °F 80 °F (2013)
Min Temperature 52 °F 48 °F 45 °F (2001)
Cooling Degree Days 1    
Growing Degree Days 16 (Base 50)    
Moisture  
Dew Point 32 °F    
Average Humidity 34    
Maximum Humidity 64    
Minimum Humidity 11    
Precipitation  
Precipitation 0.00 in - - ()
Sea Level Pressure  
Sea Level Pressure 30.05 in    
Wind  
Wind Speed 4 mph (NNW)    
Max Wind Speed 15 mph    
Max Gust Speed -    
Visibility 10 miles    
Events      
Averages and records for this station are not official NWS values.
T = Trace of Precipitation, MM = Missing Value Source: NWS Daily Summary

Daily Weather History Graph

Daily Weather History Graph

Search for Another Location

Airport:

Trip Planner

Search our weather history database for the weather conditions in past years. The results will help you decide how hot, cold, wet, or windy it might be!

Date:

Astronomy

Feb. 16, 2013 Rise Set
Actual Time 6:30 AM PST 5:35 PM PST
Civil Twilight 6:05 AM PST 6:00 PM PST
Nautical Twilight 5:36 AM PST 6:29 PM PST
Astronomical Twilight 5:07 AM PST 6:58 PM PST
Moon 10:10 AM PST (2/16) No Moon Set
Length of Visible Light 11h 55m
Length of Day
11h 05m
Waxing Crescent, 40% of the Moon is Illuminated
Feb 16
Waxing Crescent
Feb 17
First Quarter
Feb 25
Full
Mar 4
Last Quarter
Mar 11
New

Hourly Weather History & Observations

Time (PST) Temp. Dew Point Humidity Pressure Visibility Wind Dir Wind Speed Gust Speed Precip Events Conditions
12:52 AM 59.0 °F 28.9 °F 32% 30.13 in 10.0 mi Calm Calm - N/A   Mostly Cloudy
1:52 AM 55.9 °F 39.9 °F 55% 30.12 in 10.0 mi North 5.8 mph - N/A   Mostly Cloudy
2:52 AM 53.1 °F 36.0 °F 52% 30.11 in 10.0 mi Calm Calm - N/A   Mostly Cloudy
3:52 AM 52.0 °F 35.1 °F 53% 30.10 in 10.0 mi Calm Calm - N/A   Mostly Cloudy
4:52 AM 53.1 °F 35.1 °F 50% 30.11 in 10.0 mi Calm Calm - N/A   Mostly Cloudy
5:52 AM 54.0 °F 33.1 °F 45% 30.11 in 10.0 mi North 5.8 mph - N/A   Mostly Cloudy
6:52 AM 54.0 °F 33.1 °F 45% 30.11 in 10.0 mi NNW 3.5 mph - N/A   Mostly Cloudy
7:52 AM 57.0 °F 37.0 °F 47% 30.12 in 10.0 mi Calm Calm - N/A   Mostly Cloudy
8:52 AM 64.9 °F 28.9 °F 26% 30.12 in 10.0 mi NNW 4.6 mph - N/A   Mostly Cloudy
9:52 AM 73.0 °F 27.0 °F 18% 30.11 in 10.0 mi Calm Calm - N/A   Mostly Cloudy
10:52 AM 80.1 °F 21.9 °F 12% 30.10 in 10.0 mi NW 4.6 mph - N/A   Mostly Cloudy
11:52 AM 80.1 °F 19.9 °F 11% 30.06 in 10.0 mi NW 11.5 mph - N/A   Mostly Cloudy
12:52 PM 75.9 °F 33.1 °F 21% 30.03 in 10.0 mi NW 13.8 mph - N/A   Scattered Clouds
1:52 PM 75.0 °F 28.9 °F 18% 30.01 in 10.0 mi NW 15.0 mph - N/A   Scattered Clouds
2:52 PM 73.9 °F 30.9 °F 21% 30.00 in 10.0 mi NW 11.5 mph - N/A   Partly Cloudy
3:52 PM 73.9 °F 28.0 °F 18% 29.99 in 10.0 mi NW 12.7 mph - N/A   Partly Cloudy
4:52 PM 73.0 °F 27.0 °F 18% 29.98 in 10.0 mi NNW 10.4 mph - N/A   Partly Cloudy
5:52 PM 70.0 °F 24.1 °F 18% 29.99 in 10.0 mi North 5.8 mph - N/A   Partly Cloudy
6:52 PM 64.0 °F 28.9 °F 27% 30.00 in 10.0 mi NW 3.5 mph - N/A   Partly Cloudy
7:52 PM 63.0 °F 28.0 °F 27% 30.00 in 10.0 mi Calm Calm - N/A   Partly Cloudy
8:52 PM 61.0 °F 32.0 °F 34% 30.00 in 10.0 mi Calm Calm - N/A   Partly Cloudy
9:52 PM 57.9 °F 37.9 °F 47% 30.00 in 9.0 mi East 3.5 mph - N/A   Partly Cloudy
10:52 PM 55.0 °F 43.0 °F 64% 29.99 in 10.0 mi Calm Calm - N/A   Partly Cloudy
11:52 PM 55.9 °F 43.0 °F 62% 29.99 in 10.0 mi WSW 4.6 mph - N/A   Partly Cloudy